Flag for Botswana Weather past 2 weeks in Francistown, Botswana

Now
84 °F

Passing clouds.


Feels Like: 84 °F
Forecast: 58 / 83 °F
Wind: N/A

Location: Francistown Airport


UV Index: 7 (High)

Visibility: N/A


Pressure: 29.95 "Hg

Humidity: 43%

Dew point: 59 °F

Location of FrancistownLocation

Historic Weather in Francistown

°F

Francistown temperature yesterday

Maximum temperature yesterday: 84 °F (at 1:00 PM)
Minimum temperature yesterday: 45 °F (at 5:00 AM)
Average temperature yesterday: 65 °F

Past Weeks' High & Low Weather Summary

 TemperatureHumidityPressure
High86 °F (Apr 23, 1:00 PM)100% (Apr 12, 7:00 AM)30.33 "Hg (Apr 12, 7:00 AM)
Low45 °F (Apr 22, 5:00 AM)23% (Apr 21, 2:00 PM)29.95 "Hg (Apr 23, 2:00 PM)
Average65 °F73%30.18 "Hg
* Reported Apr 8 4:00 PM — Apr 23 4:00 PM, Francistown, Weather by CustomWeather, © 2014

Note: Actual official high and low records may vary slightly from our data, if they occured in-between our weather recording intervals... More about our weather records

Advertising

Historic Weather Conditions — Data for Previous 24 hours

 ConditionsComfort  
Time TempWeatherWind HumidityBarometerVisibility
4:00 PM
Apr 23
84 °FPassing clouds.N/A43%29.95 "HgN/A
3:00 PM86 °FPassing clouds.9 mph35%29.95 "HgN/A
2:00 PM86 °FPassing clouds.9 mph35%29.95 "HgN/A
1:00 PM86 °FPassing clouds.12 mph35%29.98 "HgN/A
12:00 PM84 °FScattered clouds.7 mph33%29.98 "HgN/A
11:00 AM82 °FSunny.7 mph37%30.04 "Hg10 mi
10:00 AM81 °FSunny.8 mph39%30.04 "Hg10 mi
9:00 AM73 °FSunny.3 mph50%30.04 "Hg10 mi
8:00 AM63 °FSunny.3 mph73%30.04 "Hg10 mi
7:00 AM50 °FSunny.2 mph94%30.04 "Hg10 mi
6:00 AM48 °FSunny.1 mph94%30.01 "Hg10 mi
5:00 AM48 °FClear.3 mph94%30.01 "Hg10 mi
4:00 AM50 °FClear.6 mph94%30.01 "Hg10 mi
12:00 AM54 °FClear.6 mph88%30.01 "Hg10 mi
11:00 PM
Apr 22
55 °FClear.5 mph82%30.04 "Hg10 mi
10:00 PM57 °FClear.3 mph82%30.04 "Hg10 mi
9:00 PM59 °FClear.1 mph77%30.04 "Hg10 mi
8:00 PM66 °FClear.2 mph64%30.04 "Hg10 mi
7:00 PM70 °FClear.7 mph60%30.04 "Hg10 mi
6:00 PM73 °FPassing clouds.6 mph50%30.01 "HgN/A
5:00 PM79 °FPassing clouds.6 mph37%30.01 "HgN/A
Weather by CustomWeather, © 2014

See weather overview